Weather Service Report


352 
ASUS43 KFSD 301102
RWRSD 

WEATHER ROUNDUP FOR SOUTH DAKOTA
NATIONAL WEATHER SERVICE SIOUX FALLS SD
600 AM CDT MON MAR 30 2015

NOTE: "FAIR" INDICATES FEW OR NO CLOUDS BELOW 12,000 FEET WITH NO
SIGNIFICANT WEATHER AND/OR OBSTRUCTIONS TO VISIBILITY.


SDZ001>005-009-010-012>017-301200-
NORTHWEST AND NORTH CENTRAL SOUTH DAKOTA
  
CITY           SKY/WX    TMP DP  RH WIND       PRES   REMARKS
BUFFALO          N/A     37  27  67 W14       29.90R                  
FAITH            N/A     41  26  55 W8        29.93S                  
MOBRIDGE       CLOUDY    33  28  81 CALM      29.87F                  
$$
 
SDZ012>016-024>037-041>051-057-063-072>074-301200-
SOUTHWEST AND SOUTH CENTRAL SOUTH DAKOTA
  
CITY           SKY/WX    TMP DP  RH WIND       PRES   REMARKS
RAPID CTY ARPT CLEAR     42  23  46 NW14      29.98S                  
PIERRE         MOCLDY    41  29  62 W3        29.92F                  
CUSTER         PTCLDY    40  18  41 NW7       30.05S                  
ELLSWORTH AFB  PTCLDY    41  23  48 W10       29.98R                  
PHILIP         CLEAR     33  25  72 W10       29.95S WCI  25          
PINE RIDGE     CLEAR     35  23  61 W5        30.01S                  
SPEARFISH      FAIR      46  19  34 W7        30.01R                  
WINNER         FAIR      44  19  36 NW8       29.97S                  
$$
 
SDZ004>011-016>023-039-040-301200-
NORTHEAST SOUTH DAKOTA
  
CITY           SKY/WX    TMP DP  RH WIND       PRES   REMARKS
ABERDEEN       MOCLDY    29  23  78 S7        29.91F WCI  22          
WATERTOWN      PTCLDY    28  23  81 CALM      29.94F                  
SISSETON         N/A     48  30  49 CALM      29.90F                  
$$
 
SDZ017-020-022-023-036>040-048>070-301200-
SOUTHEAST SOUTH DAKOTA
  
CITY           SKY/WX    TMP DP  RH WIND       PRES   REMARKS
SIOUX FALLS    MOCLDY    31  21  66 SW3       30.01S                  
HURON          CLEAR     35  24  64 S5        29.94F                  
MITCHELL       CLEAR     41  23  48 SW6       29.98F                  
YANKTON        CLEAR     36  21  55 CALM      30.03S                  
$$
 
ABBREVIATIONS USED IN REMARKS
   TC - TEMPERATURE IN CELSIUS
  WCI - WIND CHILL INDEX
   HX - HEAT INDEX
  VSB - VISIBILITY



405 
ASUS43 KFSD 301102
RWRFSD

WEATHER ROUNDUP FOR SE SOUTH DAKOTA/SW MINNESOTA/NW IOWA
NATIONAL WEATHER SERVICE SIOUX FALLS SD
600 AM CDT MON MAR 30 2015

NOTE: "FAIR" INDICATES FEW OR NO CLOUDS BELOW 12,000 FEET WITH NO
SIGNIFICANT WEATHER AND OR OBSTRUCTIONS TO VISIBILITY.


SDZ038>040-050-052>070-301200-
SOUTHEAST SOUTH DAKOTA
  
CITY           SKY/WX    TMP DP  RH WIND       PRES   REMARKS
CHAMBERLAIN    NOT AVBL                                               
HURON          CLEAR     35  24  64 S5        29.94F                  
MADISON        FAIR      37  19  48 SW9       29.98F                  
MITCHELL       CLEAR     41  23  48 SW6       29.98F                  
SIOUX FALLS    MOCLDY    31  21  66 SW3       30.01S                  
WINNER         FAIR      44  19  36 NW8       29.97S                  
YANKTON        CLEAR     36  21  55 CALM      30.03S                  
$$

MNZ071-072-080-081-089-090-097-098-301200-
SOUTHWEST MINNESOTA
  
CITY           SKY/WX    TMP DP  RH WIND       PRES   REMARKS
FAIRMONT       PTCLDY    39  21  48 SW15      30.00R                  
JACKSON        PTCLDY    37  23  56 SW7       30.02R                  
LUVERNE        PTCLDY    32  23  69 CALM      30.03R                  
MARSHALL       CLOUDY    45  21  39 W7        29.98S                  
MONTEVIDEO     MOCLDY    37  27  65 CALM      29.97F                  
PIPESTONE      CLOUDY    36  23  60 SW3       29.99F                  
REDWOOD FALLS  MOCLDY    40  25  55 W9        29.98R                  
TRACY          CLOUDY    44  25  47 SW12      29.99R                  
WINDOM         PTCLDY    36  23  60 SW5       30.01R                  
WORTHINGTON    CLOUDY    37  21  52 SW9       30.03R                  
$$

IAZ001>003-012>014-020>022-031-032-NEZ013-014-SDZ071-301200-
NORTHWEST IOWA
  
CITY           SKY/WX    TMP DP  RH WIND       PRES   REMARKS
DENISON        PTCLDY    32  25  74 CALM      30.07S                  
ESTHERVILLE    CLEAR     36  24  62 SW13      30.01S                  
SIOUX CITY     PTCLDY    31  22  69 E8        30.06S WCI  23          
SPENCER        MOCLDY    34  24  67 SW3       30.04S                  
$$
 
ABBREVIATIONS USED IN REMARKS
   TC - TEMPERATURE IN CELSIUS
  WCI - WIND CHILL INDEX
   HX - HEAT INDEX
  VSB - VISIBILITY


Return to Home page


Western Regional Climate Center, wrcc@dri.edu